TimeMST,TemperatureF,Dew PointF,Humidity,Sea Level PressureIn,VisibilityMPH,Wind Direction,Wind SpeedMPH,Gust SpeedMPH,PrecipitationIn,Events,Conditions,WindDirDegrees,DateUTC
12:53 AM,30.9,26.1,82,30.23,10.0,NW,16.1,-,N/A,,Clear,310,2013-11-11 07:53:00
1:53 AM,28.9,25.0,85,30.26,10.0,NW,16.1,-,N/A,,Clear,310,2013-11-11 08:53:00
2:53 AM,28.9,25.0,85,30.27,10.0,WNW,12.7,-,N/A,,Clear,300,2013-11-11 09:53:00
3:53 AM,28.0,25.0,88,30.30,10.0,NW,11.5,-,N/A,,Clear,310,2013-11-11 10:53:00
4:53 AM,27.0,25.0,92,30.34,10.0,WNW,11.5,-,N/A,,Mostly Cloudy,300,2013-11-11 11:53:00
5:53 AM,27.0,25.0,92,30.38,10.0,WNW,6.9,-,N/A,,Overcast,300,2013-11-11 12:53:00
6:39 AM,28.0,25.0,88,30.33,10.0,NW,10.4,-,N/A,,Overcast,310,2013-11-11 13:39:00
6:53 AM,28.0,25.0,88,30.43,10.0,NW,10.4,-,N/A,,Overcast,310,2013-11-11 13:53:00
7:53 AM,28.0,24.1,85,30.47,10.0,WNW,9.2,-,N/A,,Overcast,300,2013-11-11 14:53:00
8:53 AM,28.9,24.1,82,30.51,10.0,Calm,Calm,-,N/A,,Overcast,0,2013-11-11 15:53:00
9:53 AM,30.0,25.0,82,30.52,10.0,Calm,Calm,-,N/A,,Overcast,0,2013-11-11 16:53:00
10:42 AM,30.9,25.0,79,30.42,10.0,ENE,4.6,-,N/A,,Overcast,70,2013-11-11 17:42:00
10:53 AM,32.0,25.0,75,30.52,9.0,SE,4.6,-,N/A,,Overcast,140,2013-11-11 17:53:00
11:53 AM,32.0,25.0,75,30.52,10.0,East,5.8,-,N/A,,Overcast,90,2013-11-11 18:53:00
12:53 PM,34.0,26.1,73,30.51,10.0,Calm,Calm,-,N/A,,Overcast,0,2013-11-11 19:53:00
1:41 PM,35.1,26.1,70,30.42,10.0,Calm,Calm,-,N/A,,Mostly Cloudy,0,2013-11-11 20:41:00
1:53 PM,35.1,26.1,70,30.52,10.0,Calm,Calm,-,N/A,,Scattered Clouds,0,2013-11-11 20:53:00
2:53 PM,37.0,26.1,65,30.52,10.0,NW,3.5,-,N/A,,Partly Cloudy,310,2013-11-11 21:53:00
3:53 PM,36.0,26.1,67,30.55,8.0,Calm,Calm,-,N/A,,Mostly Cloudy,0,2013-11-11 22:53:00
4:53 PM,36.0,27.0,70,30.57,10.0,SSE,3.5,-,N/A,,Mostly Cloudy,150,2013-11-11 23:53:00
5:53 PM,35.1,27.0,72,30.60,10.0,SSE,3.5,-,N/A,,Clear,150,2013-11-12 00:53:00
6:53 PM,34.0,27.0,75,30.62,10.0,SE,4.6,-,N/A,,Clear,130,2013-11-12 01:53:00
7:53 PM,32.0,27.0,82,30.64,10.0,ESE,3.5,-,N/A,,Clear,110,2013-11-12 02:53:00
8:53 PM,30.9,27.0,85,30.65,10.0,ESE,3.5,-,N/A,,Clear,120,2013-11-12 03:53:00
9:53 PM,28.0,25.0,88,30.66,10.0,ESE,4.6,-,N/A,,Clear,120,2013-11-12 04:53:00
10:53 PM,28.0,25.0,88,30.66,10.0,East,5.8,-,N/A,,Clear,90,2013-11-12 05:53:00
11:53 PM,26.1,24.1,92,30.66,10.0,ESE,4.6,-,N/A,,Clear,110,2013-11-12 06:53:00